This is the latest recevied weather packets stored in our database for station/object AD8BV. If no packets are shown the sender has not sent any weather packets the latest 10 day(s).
| Time | Temp. | Humidity | Pressure | Rain* | Wind** | Luminosity | Snow |
|---|---|---|---|---|---|---|---|
| 1777495370 | 10° C | 93% | 1012.2 hPa | 1.78 mm | - | 24 W/m² | - |
| 1777495068 | 10° C | 93% | 1012.3 hPa | 0 mm | - | 65 W/m² | - |
| 1777494765 | 10.56° C | 93% | 1012.4 hPa | 1.78 mm | - | 81 W/m² | - |
| 1777494462 | 10.56° C | 92% | 1012.4 hPa | 1.78 mm | - | 87 W/m² | - |
| 1777494159 | 10° C | 92% | 1012.3 hPa | 0 mm | - | 71 W/m² | - |
| 1777493856 | 10° C | 92% | 1012.3 hPa | 0 mm | - | 56 W/m² | - |
| 1777493554 | 10.56° C | 92% | 1012.5 hPa | 0 mm | - | 54 W/m² | - |
| 1777493251 | 10.56° C | 92% | 1012.3 hPa | 1.27 mm | - | 97 W/m² | - |
| 1777492948 | 10.56° C | 92% | 1012.2 hPa | 1.27 mm | - | 248 W/m² | - |
| 1777492645 | 10.56° C | 92% | 1012.2 hPa | 0 mm | - | 181 W/m² | - |
| 1777492345 | 10° C | 92% | 1012.5 hPa | 0 mm | - | 168 W/m² | - |
| 1777492042 | 10° C | 93% | 1012.5 hPa | 1.78 mm | - | 140 W/m² | - |
| 1777491739 | 10° C | 92% | 1012.3 hPa | 3.05 mm | - | 144 W/m² | - |
| 1777491436 | 10° C | 91% | 1012.3 hPa | 1.27 mm | - | 143 W/m² | - |
| 1777491133 | 10° C | 91% | 1012.4 hPa | 1.78 mm | - | 99 W/m² | - |
| 1777490829 | 10.56° C | 90% | 1012.4 hPa | 3.05 mm | - | 69 W/m² | - |
| 1777490525 | 10.56° C | 88% | 1012.6 hPa | 1.27 mm | - | 60 W/m² | - |
| 1777490221 | 10.56° C | 87% | 1012.4 hPa | 0 mm | - | 49 W/m² | - |
| 1777489919 | 10.56° C | 89% | 1012.6 hPa | 0 mm | - | 54 W/m² | - |
| 1777489616 | 10.56° C | 87% | 1012.5 hPa | 0 mm | - | 70 W/m² | - |
| 1777489313 | 10.56° C | 85% | 1012.5 hPa | 1.78 mm | - | 62 W/m² | - |
| 1777489010 | 10.56° C | 85% | 1012.4 hPa | 1.78 mm | - | 64 W/m² | - |
| 1777488707 | 11.11° C | 83% | 1012.4 hPa | 0 mm | - | 57 W/m² | - |
| 1777488404 | 11.11° C | 83% | 1012.4 hPa | 0 mm | - | 53 W/m² | - |
| 1777488103 | 11.67° C | 79% | 1012.1 hPa | 0 mm | - | 52 W/m² | - |
* Rain latest hour (hover to see other rain measurements)
** Current wind speed in m/s (hover to see current wind gust speed)